Overview Statistics Trail Chart Weather Telemetry Raw packets
 

This is the latest recevied weather packets stored in our database for station/object KI5RAB. If no packets are shown the sender has not sent any weather packets the latest 10 day(s).

<< 30 31 32 33 34 35 36 >>
Time Temp. Humidity Pressure Rain* Wind** Luminosity Snow
1788459488 35.56° C 53% 1016.3 hPa 0 mm - 710 W/m² -
1788459183 35° C 55% 1016.2 hPa 0 mm - 707 W/m² -
1788458878 35.56° C 54% 1016.2 hPa 0 mm - 706 W/m² -
1788458577 35.56° C 54% 1016.5 hPa 0 mm - 705 W/m² -
1788458276 34.44° C 56% 1016.5 hPa 0 mm - 705 W/m² -
1788457975 35° C 55% 1016.5 hPa 0 mm - 697 W/m² -
1788457674 34.44° C 56% 1016.7 hPa 0 mm - 699 W/m² -
1788457370 33.89° C 60% 1016.8 hPa 0 mm - 687 W/m² -
1788457066 34.44° C 55% 1016.9 hPa 0 mm - 689 W/m² -
1788456761 34.44° C 56% 1016.9 hPa 0 mm - 686 W/m² -
1788456456 33.89° C 55% 1017 hPa 0 mm - 682 W/m² -
1788456151 33.89° C 57% 1016.9 hPa 0 mm - 678 W/m² -
1788455846 33.89° C 58% 1017 hPa 0 mm - 668 W/m² -
1788455542 33.89° C 63% 1017.2 hPa 0 mm - 658 W/m² -
1788455240 32.78° C 62% 1017.2 hPa 0 mm - 657 W/m² -
1788454941 32.78° C 63% 1017.3 hPa 0 mm - 650 W/m² -
1788454634 32.78° C 63% 1017.2 hPa 0 mm - 641 W/m² -
1788454329 32.78° C 63% 1017.2 hPa 0 mm - 631 W/m² -
1788454023 33.33° C 64% 1017.2 hPa 0 mm - 621 W/m² -
1788453720 32.78° C 67% 1017.4 hPa 0 mm - 603 W/m² -
1788453419 33.33° C 66% 1017.5 hPa 0 mm - 603 W/m² -
1788453116 32.22° C 66% 1017.4 hPa 0 mm - 590 W/m² -
1788452811 32.78° C 67% 1017.4 hPa 0 mm - 591 W/m² -
1788452507 32.78° C 67% 1017.6 hPa 0 mm - 589 W/m² -
1788452202 32.22° C 66% 1017.5 hPa 0 mm - 563 W/m² -

* Rain latest hour (hover to see other rain measurements)
** Current wind speed in m/s (hover to see current wind gust speed)